{"data":{"norad_id":55973,"intl_designator":"2023-039A","name":"TIANMU-1 03","alt_names":[],"object_type":"PAYLOAD","status":"ACTIVE","operator":null,"country":"PRC","launch_date":"2023-03-22","launch_site_code":"JSC","launch_vehicle":null,"mission":null,"orbit_class":"UNKNOWN","rcs_meters":null,"size_class":null,"mass_kg":null,"dimensions":null,"purposes":["earth_obs"],"wikipedia_slug":null,"has_3d_model":false,"image_url":null,"decayed_at":null,"tle_current":{"epoch":"2026-05-25T05:10:55.132896Z","epoch_age_seconds":52439,"freshness":"FRESH","line1":"1 55973U 23039A   26145.21591589  .00014901  00000+0  30153-3 0  9993","line2":"2 55973  97.5231 318.2999 0003572 158.3353 201.8048 15.46539219177287","mean_motion":15.46539219,"eccentricity":0.0003572,"inclination_deg":97.5231,"raan_deg":318.2999,"arg_perigee_deg":158.3353,"mean_anomaly_deg":201.8048,"bstar":0.00030153,"rev_number":17728,"period_min":93.111120772683,"perigee_km":424.42838861769,"apogee_km":429.28987785528,"semimajor_km":6804.9961332365,"source":"CELESTRAK","updated_at":"2026-05-25T13:38:12.252813Z"}}}